Pendleton, OR

7:13 AM PDT on July 27, 2017 (GMT -0700)
Eastern Oreg Regional At Pendleton

Weather History for KPDT - September, 2012

Change the Weather History Date:

Friday, September 21, 2012

  Actual Average Record
Temperature  
Mean Temperature 66 °F 62 °F  
Max Temperature 83 °F 76 °F 94 °F (1897)
Min Temperature 49 °F 48 °F 27 °F (1895)
Degree Days  
Heating Degree Days 0 5  
Month to date heating degree days 31 57  
Since 1 July heating degree days 48 79  
Cooling Degree Days 1 1  
Month to date cooling degree days 54 56  
Year to date cooling degree days 608 626  
Growing Degree Days 15 (Base 50)    
Moisture  
Dew Point 37 °F    
Average Humidity 37    
Maximum Humidity 55    
Minimum Humidity 18    
Precipitation  
Precipitation 0.00 in 0.02 in 0.59 in (1944)
Month to date precipitation T 0.37  
Year to date precipitation 10.00 8.46  
Snow  
Snow 0.00 in 0.00 in 0.00 in (2002)
Month to date snowfall 0.0 0.0  
Year to date snowfall 5.9 7.7  
Since 1 July snowfall 0.0 0.0  
Snow Depth 0.00 in    
Sea Level Pressure  
Sea Level Pressure 29.95 in    
Wind  
Wind Speed 5 mph (NW)    
Max Wind Speed 12 mph    
Max Gust Speed 16 mph    
Visibility 6 miles    
Events      
T = Trace of Precipitation, MM = Missing Value Source: NWS Daily Summary

Daily Weather History Graph

Daily Weather History Graph

Search for Another Location

Airport or City:

Trip Planner

Search our weather history database for the weather conditions in past years. The results will help you decide how hot, cold, wet, or windy it might be!

Date:

Astronomy

Sep. 21, 2012 Rise Set
Actual Time 6:41 AM PDT 6:53 PM PDT
Civil Twilight 6:12 AM PDT 7:23 PM PDT
Nautical Twilight 5:37 AM PDT 7:58 PM PDT
Astronomical Twilight 5:01 AM PDT 8:33 PM PDT
Moon 1:27 PM PDT (9/21) 10:40 PM PDT (9/21)
Length of Visible Light 13h 11m
Length of Day
12h 11m
Waxing Crescent, 38% of the Moon is Illuminated
Sep 21
Waxing Crescent
Sep 22
First Quarter
Sep 29
Full
Oct 8
Last Quarter
Oct 15
New

Hourly Weather History & Observations

Time (PDT) Temp. Dew Point Humidity Pressure Visibility Wind Dir Wind Speed Gust Speed Precip Events Conditions
12:53 AM 64.0 °F 33.1 °F 31% 29.96 in 6.0 mi South 3.5 mph - N/A   Haze
1:53 AM 62.1 °F 34.0 °F 35% 29.96 in 7.0 mi SSE 4.6 mph - N/A   Clear
2:53 AM 55.0 °F 35.1 °F 47% 29.98 in 7.0 mi SSE 5.8 mph - N/A   Clear
3:53 AM 60.1 °F 35.1 °F 39% 29.97 in 6.0 mi Calm Calm - N/A   Haze
4:53 AM 53.1 °F 34.0 °F 48% 29.98 in 6.0 mi SSE 3.5 mph - N/A   Haze
5:53 AM 51.1 °F 34.0 °F 52% 29.99 in 7.0 mi ESE 6.9 mph - N/A   Clear
6:53 AM 51.1 °F 33.1 °F 50% 30.01 in 4.0 mi SE 5.8 mph - N/A   Haze
7:53 AM 52.0 °F 34.0 °F 50% 30.01 in 4.0 mi SE 5.8 mph - N/A   Haze
8:53 AM 60.1 °F 34.0 °F 38% 30.01 in 4.0 mi ESE 3.5 mph - N/A   Haze
9:53 AM 68.0 °F 35.1 °F 30% 30.00 in 5.0 mi Calm Calm - N/A   Haze
10:53 AM 71.1 °F 39.0 °F 31% 29.99 in 5.0 mi NW 5.8 mph - N/A   Haze
11:53 AM 73.0 °F 41.0 °F 31% 29.98 in 5.0 mi NNW 8.1 mph - N/A   Haze
12:53 PM 75.9 °F 39.9 °F 27% 29.96 in 5.0 mi NNW 4.6 mph - N/A   Haze
1:53 PM 80.1 °F 37.9 °F 22% 29.93 in 5.0 mi North 8.1 mph - N/A   Haze
2:53 PM 81.0 °F 36.0 °F 20% 29.91 in 4.0 mi NW 6.9 mph - N/A   Haze
3:53 PM 82.4 °F 35.6 °F 19% 29.93 in 6.0 mi North 8.1 mph - N/A   Haze
4:53 PM 81.0 °F 36.0 °F 20% 29.89 in 6.0 mi NW 9.2 mph - N/A   Haze
5:53 PM 77.0 °F 37.0 °F 24% 29.89 in 6.0 mi NW 8.1 mph - N/A   Haze
6:53 PM 68.0 °F 39.9 °F 36% 29.89 in 5.0 mi WNW 6.9 mph - N/A   Haze
7:53 PM 66.0 °F 39.9 °F 38% 29.90 in 7.0 mi WNW 3.5 mph - N/A   Clear
8:53 PM 62.1 °F 39.9 °F 44% 29.90 in 7.0 mi West 4.6 mph - N/A   Clear
9:53 PM 61.0 °F 42.1 °F 50% 29.91 in 6.0 mi SSE 5.8 mph - N/A   Haze
10:53 PM 57.9 °F 41.0 °F 53% 29.92 in 6.0 mi Calm Calm - N/A   Haze
11:53 PM 55.9 °F 39.9 °F 55% 29.93 in 6.0 mi NNW 5.8 mph - N/A   Haze